Regional Weather Roundup
Issued by NWS

Home | Current Version | Previous Version | Graphics & Text | Print | Product List | Glossary On
Versions: 1 2 3 4 5 6 7 8 9 10 11 12 13 14 15 16 17 18 19 20 21 22 23 24 25 26 27 28 29 30 31 32 33 34 35 36 37 38 39 40 41 42 43 44 45 46 47 48 49 50
000
ASUS45 KCYS 031110
RWRWY

WYOMING REGIONAL WEATHER ROUNDUP
NATIONAL WEATHER SERVICE CHEYENNE WY
500 AM MDT THU SEP 03 2015

NOTE:  "FAIR" INDICATES FEW OR NO CLOUDS BELOW 12,000 FEET
WITH NO SIGNIFICANT WEATHER AND/OR OBSTRUCTIONS TO VISIBILITY.

WYZ001-031200-
YELLOWSTONE NATIONAL PARK

CITY           SKY/WX    TMP DP  RH WIND       PRES   REMARKS
LK YELLOWSTONE   N/A     49  44  83 W14G28    30.13R
W YELLOWSTONE  NOT AVBL

$$
WYZ002>013-054>058-071-098>099-031200-
NORTHERN WYOMING

CITY           SKY/WX    TMP DP  RH WIND       PRES   REMARKS
JACKSON        MOCLDY    54  41  62 E3        29.99S
CODY           FAIR      66  36  32 SW5       29.88R
GREYBULL       FAIR      61  35  37 CALM      29.80S
WORLAND        FAIR      63  41  44 SE3       29.82S
SHERIDAN       FAIR      66  36  32 NW9       29.84R
BUFFALO        FAIR      69  35  28 N5        29.89R
GILLETTE       FAIR      74  36  25 SW15      29.82S
HULETT         FAIR      72  36  26 S7        29.84R
NEWCASTLE      FAIR      70  36  28 SE6       29.88S

$$
WYZ014>020-022>026-101>103-031200-
CENTRAL WYOMING

CITY           SKY/WX    TMP DP  RH WIND       PRES   REMARKS
BIG PINEY      FAIR      50  34  54 SE3       30.09R
PINEDALE       FAIR      45  36  70 CALM      30.11R
DUBOIS         FAIR      46  32  57 NW15      30.07R
LANDER         FAIR      69  37  30 VRB6G20   29.94R
RIVERTON       FAIR      66  37  34 S8        29.94R
CASPER         FAIR      66  39  37 SW3       29.96S
DOUGLAS        FAIR      71  40  32 SW7       29.96R

$$
WYZ021-027>030-104>119-031200-
SOUTHERN WYOMING

CITY           SKY/WX    TMP DP  RH WIND       PRES   REMARKS
EVANSTON       FAIR      58  33  39 SW7       30.10R
KEMMERER       FAIR      55  32  41 CALM      30.11R
FORT BRIDGER   SUNNY     64  34  32 SW5       30.12R
ROCK SPRINGS   FAIR      62  38  40 SW5       30.07S
DIXON          FAIR      51  44  77 SE3       30.14S
RAWLINS        FAIR      65  38  36 SW13      30.10S
SARATOGA       FAIR      54  43  66 SE8       30.14S
LARAMIE        FAIR      52  42  69 SW9       30.16S
CHEYENNE       FAIR      67  43  41 W13       30.07R
TORRINGTON     FAIR      63  48  58 NE5       29.91S
PINE BLUFFS    FAIR      55  43  62 CALM      30.01S

$$


USA.gov is the U.S. government's official web portal to all federal, state and local government web resources and services.